Time,TemperatureF,DewpointF,PressureIn,WindDirection,WindDirectionDegrees,WindSpeedMPH,WindSpeedGustMPH,Humidity,HourlyPrecipIn,Conditions,Clouds,dailyrainin,SolarRadiationWatts/m^2,SoftwareType,DateUTC
2013-06-01 00:02:00,75.0,68.0,-100.00,East,98,2.0,5.0,79,0.00,,,0.01,0.000000,,2013-06-01 10:02:00,
2013-06-01 00:12:00,75.0,68.0,-100.00,East,98,2.0,5.0,79,0.00,,,0.01,0.000000,,2013-06-01 10:12:00,
2013-06-01 00:42:00,75.0,67.0,-100.00,East,79,2.0,6.0,77,0.00,,,0.01,0.000000,,2013-06-01 10:42:00,
2013-06-01 00:52:00,75.0,67.0,-100.00,East,79,2.0,6.0,77,0.00,,,0.01,0.000000,,2013-06-01 10:52:00,
2013-06-01 01:02:00,75.0,67.0,-100.00,East,79,2.0,6.0,77,0.00,,,0.01,0.000000,,2013-06-01 11:02:00,
2013-06-01 01:11:00,75.0,67.0,-100.00,East,79,2.0,6.0,77,0.00,,,0.01,0.000000,,2013-06-01 11:11:00,
2013-06-01 01:21:00,75.0,67.0,-100.00,East,79,2.0,6.0,77,0.00,,,0.01,0.000000,,2013-06-01 11:21:00,
2013-06-01 01:42:00,75.0,67.0,-100.00,ENE,62,3.0,7.0,75,0.00,,,0.01,0.000000,,2013-06-01 11:42:00,
2013-06-01 01:52:00,75.0,67.0,-100.00,ENE,62,3.0,7.0,75,0.00,,,0.01,0.000000,,2013-06-01 11:52:00,
2013-06-01 02:01:00,75.0,67.0,-100.00,ENE,62,3.0,7.0,75,0.00,,,0.01,0.000000,,2013-06-01 12:01:00,
2013-06-01 02:11:00,75.0,67.0,-100.00,ENE,62,3.0,7.0,75,0.00,,,0.01,0.000000,,2013-06-01 12:11:00,
2013-06-01 02:21:00,75.0,67.0,-100.00,ENE,62,3.0,7.0,75,0.00,,,0.01,0.000000,,2013-06-01 12:21:00,
2013-06-01 02:22:00,75.0,67.0,-100.00,ENE,62,4.0,8.0,75,0.00,,,0.01,0.000000,,2013-06-01 12:22:00,
2013-06-01 02:42:00,75.0,67.0,-100.00,ENE,62,4.0,8.0,75,0.00,,,0.01,0.000000,,2013-06-01 12:42:00,
2013-06-01 02:52:00,75.0,67.0,-100.00,ENE,62,4.0,8.0,75,0.00,,,0.01,0.000000,,2013-06-01 12:52:00,
2013-06-01 03:01:00,75.0,67.0,-100.00,ENE,62,4.0,8.0,75,0.00,,,0.01,0.000000,,2013-06-01 13:01:00,
2013-06-01 03:11:00,75.0,67.0,-100.00,ENE,62,4.0,8.0,75,0.00,,,0.01,0.000000,,2013-06-01 13:11:00,
2013-06-01 03:42:00,75.0,67.0,-100.00,ENE,58,3.0,7.0,75,0.00,,,0.01,0.000000,,2013-06-01 13:42:00,
2013-06-01 03:52:00,75.0,67.0,-100.00,ENE,58,3.0,7.0,75,0.00,,,0.01,0.000000,,2013-06-01 13:52:00,
2013-06-01 04:02:00,75.0,67.0,-100.00,ENE,58,3.0,7.0,75,0.00,,,0.01,0.000000,,2013-06-01 14:02:00,
2013-06-01 04:11:00,75.0,67.0,-100.00,ENE,58,3.0,7.0,75,0.00,,,0.01,0.000000,,2013-06-01 14:11:00,
2013-06-01 04:21:00,75.0,67.0,-100.00,ENE,58,3.0,7.0,75,0.00,,,0.01,0.000000,,2013-06-01 14:21:00,
2013-06-01 04:42:00,75.0,67.0,-100.00,ENE,61,3.0,6.0,75,0.00,,,0.01,0.000000,,2013-06-01 14:42:00,
2013-06-01 04:52:00,75.0,67.0,-100.00,ENE,61,3.0,6.0,75,0.00,,,0.01,0.000000,,2013-06-01 14:52:00,
2013-06-01 05:01:00,75.0,67.0,-100.00,ENE,61,3.0,6.0,75,0.00,,,0.01,0.000000,,2013-06-01 15:01:00,
2013-06-01 05:11:00,75.0,67.0,-100.00,ENE,61,3.0,6.0,75,0.00,,,0.01,0.000000,,2013-06-01 15:11:00,
2013-06-01 05:21:00,75.0,67.0,-100.00,ENE,61,3.0,6.0,75,0.00,,,0.01,0.000000,,2013-06-01 15:21:00,
2013-06-01 05:22:00,75.0,67.0,-100.00,ENE,64,2.0,6.0,76,0.00,,,0.01,0.000000,,2013-06-01 15:22:00,
2013-06-01 05:43:00,75.0,67.0,-100.00,ENE,64,2.0,6.0,76,0.00,,,0.01,0.000000,,2013-06-01 15:43:00,
2013-06-01 05:53:00,75.0,67.0,-100.00,ENE,64,2.0,6.0,76,0.00,,,0.01,0.000000,,2013-06-01 15:53:00,
2013-06-01 06:03:00,75.0,67.0,-100.00,ENE,64,2.0,6.0,76,0.00,,,0.01,0.000000,,2013-06-01 16:03:00,
2013-06-01 06:12:00,75.0,67.0,-100.00,ENE,64,2.0,6.0,76,0.00,,,0.01,0.000000,,2013-06-01 16:12:00,
2013-06-01 06:42:00,74.0,65.0,-100.00,East,79,2.0,5.0,74,0.00,,,0.01,1.000000,,2013-06-01 16:42:00,
2013-06-01 06:52:00,74.0,65.0,-100.00,East,79,2.0,5.0,74,0.00,,,0.01,1.000000,,2013-06-01 16:52:00,
2013-06-01 07:02:00,74.0,65.0,-100.00,East,79,2.0,5.0,74,0.00,,,0.01,1.000000,,2013-06-01 17:02:00,
2013-06-01 07:11:00,74.0,65.0,-100.00,East,79,2.0,5.0,74,0.00,,,0.01,1.000000,,2013-06-01 17:11:00,
2013-06-01 07:21:00,74.0,65.0,-100.00,East,79,2.0,5.0,74,0.00,,,0.01,1.000000,,2013-06-01 17:21:00,
2013-06-01 07:42:00,75.0,66.0,-100.00,East,93,2.0,4.0,73,0.00,,,0.01,39.000000,,2013-06-01 17:42:00,
2013-06-01 07:52:00,75.0,66.0,-100.00,East,93,2.0,4.0,73,0.00,,,0.01,39.000000,,2013-06-01 17:52:00,
2013-06-01 08:01:00,75.0,66.0,-100.00,East,93,2.0,4.0,73,0.00,,,0.01,39.000000,,2013-06-01 18:01:00,
2013-06-01 08:11:00,75.0,66.0,-100.00,East,93,2.0,4.0,73,0.00,,,0.01,39.000000,,2013-06-01 18:11:00,
2013-06-01 08:21:00,75.0,66.0,-100.00,East,93,2.0,4.0,73,0.00,,,0.01,39.000000,,2013-06-01 18:21:00,
2013-06-01 08:42:00,77.0,66.0,-100.00,ESE,119,1.0,3.0,70,0.00,,,0.01,71.000000,,2013-06-01 18:42:00,
2013-06-01 08:52:00,77.0,66.0,-100.00,ESE,119,1.0,3.0,70,0.00,,,0.01,71.000000,,2013-06-01 18:52:00,
2013-06-01 09:01:00,77.0,66.0,-100.00,ESE,119,1.0,3.0,70,0.00,,,0.01,71.000000,,2013-06-01 19:01:00,
2013-06-01 09:11:00,77.0,66.0,-100.00,ESE,119,1.0,3.0,70,0.00,,,0.01,71.000000,,2013-06-01 19:11:00,
2013-06-01 09:21:00,77.0,66.0,-100.00,ESE,119,1.0,3.0,70,0.00,,,0.01,71.000000,,2013-06-01 19:21:00,
2013-06-01 09:42:00,79.0,67.0,-100.00,SW,215,2.0,4.0,66,0.00,,,0.01,231.000000,,2013-06-01 19:42:00,
2013-06-01 09:52:00,79.0,67.0,-100.00,SW,215,2.0,4.0,66,0.00,,,0.01,231.000000,,2013-06-01 19:52:00,
2013-06-01 10:01:00,79.0,67.0,-100.00,SW,215,2.0,4.0,66,0.00,,,0.01,231.000000,,2013-06-01 20:01:00,
2013-06-01 10:11:00,79.0,67.0,-100.00,SW,215,2.0,4.0,66,0.00,,,0.01,231.000000,,2013-06-01 20:11:00,
2013-06-01 10:21:00,79.0,67.0,-100.00,SW,215,2.0,4.0,66,0.00,,,0.01,231.000000,,2013-06-01 20:21:00,
2013-06-01 10:42:00,82.0,68.0,-100.00,WSW,258,3.0,7.0,63,0.00,,,0.01,527.000000,,2013-06-01 20:42:00,
2013-06-01 10:52:00,82.0,68.0,-100.00,WSW,258,3.0,7.0,63,0.00,,,0.01,527.000000,,2013-06-01 20:52:00,
2013-06-01 11:01:00,82.0,68.0,-100.00,WSW,258,3.0,7.0,63,0.00,,,0.01,527.000000,,2013-06-01 21:01:00,
2013-06-01 11:11:00,82.0,68.0,-100.00,WSW,258,3.0,7.0,63,0.00,,,0.01,527.000000,,2013-06-01 21:11:00,
2013-06-01 11:21:00,82.0,68.0,-100.00,WSW,258,3.0,7.0,63,0.00,,,0.01,527.000000,,2013-06-01 21:21:00,
2013-06-01 11:22:00,83.0,67.0,-100.00,West,268,3.0,8.0,59,0.00,,,0.01,737.000000,,2013-06-01 21:22:00,
2013-06-01 11:43:00,83.0,67.0,-100.00,West,268,3.0,8.0,59,0.00,,,0.01,737.000000,,2013-06-01 21:43:00,
2013-06-01 11:53:00,83.0,67.0,-100.00,West,268,3.0,8.0,59,0.00,,,0.01,737.000000,,2013-06-01 21:53:00,
2013-06-01 12:03:00,83.0,67.0,-100.00,West,268,3.0,8.0,59,0.00,,,0.01,737.000000,,2013-06-01 22:03:00,
2013-06-01 12:12:00,83.0,67.0,-100.00,West,268,3.0,8.0,59,0.00,,,0.01,737.000000,,2013-06-01 22:12:00,
2013-06-01 12:42:00,84.0,68.0,-100.00,West,270,4.0,11.0,59,0.00,,,0.01,899.000000,,2013-06-01 22:42:00,
2013-06-01 12:53:00,84.0,68.0,-100.00,West,270,4.0,11.0,59,0.00,,,0.01,899.000000,,2013-06-01 22:53:00,
2013-06-01 13:02:00,84.0,68.0,-100.00,West,270,4.0,11.0,59,0.00,,,0.01,899.000000,,2013-06-01 23:02:00,
2013-06-01 13:11:00,84.0,68.0,-100.00,West,270,4.0,11.0,59,0.00,,,0.01,899.000000,,2013-06-01 23:11:00,
2013-06-01 13:21:00,84.0,68.0,-100.00,West,270,4.0,11.0,59,0.00,,,0.01,899.000000,,2013-06-01 23:21:00,
2013-06-01 13:42:00,83.0,69.0,-100.00,West,275,5.0,11.0,63,0.00,,,0.01,404.000000,,2013-06-01 23:42:00,
2013-06-01 13:52:00,83.0,69.0,-100.00,West,275,5.0,11.0,63,0.00,,,0.01,404.000000,,2013-06-01 23:52:00,
2013-06-01 14:02:00,83.0,69.0,-100.00,West,275,5.0,11.0,63,0.00,,,0.01,404.000000,,2013-06-02 00:02:00,
2013-06-01 14:11:00,83.0,69.0,-100.00,West,275,5.0,11.0,63,0.00,,,0.01,404.000000,,2013-06-02 00:11:00,
2013-06-01 14:21:00,83.0,69.0,-100.00,West,275,5.0,11.0,63,0.00,,,0.01,404.000000,,2013-06-02 00:21:00,
2013-06-01 14:42:00,81.0,68.0,-100.00,West,273,3.0,7.0,65,0.00,,,0.01,221.000000,,2013-06-02 00:42:00,
2013-06-01 14:52:00,81.0,68.0,-100.00,West,273,3.0,7.0,65,0.00,,,0.01,221.000000,,2013-06-02 00:52:00,
2013-06-01 15:01:00,81.0,68.0,-100.00,West,273,3.0,7.0,65,0.00,,,0.01,221.000000,,2013-06-02 01:01:00,
2013-06-01 15:11:00,81.0,68.0,-100.00,West,273,3.0,7.0,65,0.00,,,0.01,221.000000,,2013-06-02 01:11:00,
2013-06-01 15:21:00,81.0,68.0,-100.00,West,273,3.0,7.0,65,0.00,,,0.01,221.000000,,2013-06-02 01:21:00,
2013-06-01 15:42:00,81.0,67.0,-100.00,West,266,3.0,7.0,63,0.00,,,0.01,208.000000,,2013-06-02 01:42:00,
2013-06-01 15:52:00,81.0,67.0,-100.00,West,266,3.0,7.0,63,0.00,,,0.01,208.000000,,2013-06-02 01:52:00,
2013-06-01 16:01:00,81.0,67.0,-100.00,West,266,3.0,7.0,63,0.00,,,0.01,208.000000,,2013-06-02 02:01:00,
2013-06-01 16:12:00,81.0,67.0,-100.00,West,266,3.0,7.0,63,0.00,,,0.01,208.000000,,2013-06-02 02:12:00,
2013-06-01 16:21:00,81.0,67.0,-100.00,West,266,3.0,7.0,63,0.00,,,0.01,208.000000,,2013-06-02 02:21:00,
2013-06-01 16:42:00,81.0,65.0,-100.00,WSW,237,2.0,6.0,58,0.00,,,0.01,261.000000,,2013-06-02 02:42:00,
2013-06-01 16:52:00,81.0,65.0,-100.00,WSW,237,2.0,6.0,58,0.00,,,0.01,261.000000,,2013-06-02 02:52:00,
2013-06-01 17:02:00,81.0,65.0,-100.00,WSW,237,2.0,6.0,58,0.00,,,0.01,261.000000,,2013-06-02 03:02:00,
2013-06-01 17:11:00,81.0,65.0,-100.00,WSW,237,2.0,6.0,58,0.00,,,0.01,261.000000,,2013-06-02 03:11:00,
2013-06-01 17:21:00,81.0,65.0,-100.00,WSW,237,2.0,6.0,58,0.00,,,0.01,261.000000,,2013-06-02 03:21:00,
2013-06-01 17:22:00,83.0,67.0,-100.00,WSW,239,3.0,8.0,58,0.00,,,0.01,424.000000,,2013-06-02 03:22:00,
2013-06-01 17:43:00,83.0,67.0,-100.00,WSW,239,3.0,8.0,58,0.00,,,0.01,424.000000,,2013-06-02 03:43:00,
2013-06-01 17:53:00,83.0,67.0,-100.00,WSW,239,3.0,8.0,58,0.00,,,0.01,424.000000,,2013-06-02 03:53:00,
2013-06-01 18:02:00,83.0,67.0,-100.00,WSW,239,3.0,8.0,58,0.00,,,0.01,424.000000,,2013-06-02 04:02:00,
2013-06-01 18:13:00,83.0,67.0,-100.00,WSW,239,3.0,8.0,58,0.00,,,0.01,424.000000,,2013-06-02 04:13:00,
2013-06-01 18:22:00,81.0,68.0,-100.00,WSW,237,3.0,7.0,65,0.00,,,0.01,123.000000,,2013-06-02 04:22:00,
2013-06-01 18:42:00,81.0,68.0,-100.00,WSW,237,3.0,7.0,65,0.00,,,0.01,123.000000,,2013-06-02 04:42:00,
2013-06-01 18:53:00,81.0,68.0,-100.00,WSW,237,3.0,7.0,65,0.00,,,0.01,123.000000,,2013-06-02 04:53:00,
2013-06-01 19:02:00,81.0,68.0,-100.00,WSW,237,3.0,7.0,65,0.00,,,0.01,123.000000,,2013-06-02 05:02:00,
2013-06-01 19:11:00,81.0,68.0,-100.00,WSW,237,3.0,7.0,65,0.00,,,0.01,123.000000,,2013-06-02 05:11:00,
2013-06-01 19:42:00,79.0,68.0,-100.00,SW,235,2.0,5.0,68,0.00,,,0.00,17.000000,,2013-06-02 05:42:00,
2013-06-01 19:52:00,79.0,68.0,-100.00,SW,235,2.0,5.0,68,0.00,,,0.00,17.000000,,2013-06-02 05:52:00,
2013-06-01 20:01:00,79.0,68.0,-100.00,SW,235,2.0,5.0,68,0.00,,,0.00,17.000000,,2013-06-02 06:01:00,
2013-06-01 20:12:00,79.0,68.0,-100.00,SW,235,2.0,5.0,68,0.00,,,0.00,17.000000,,2013-06-02 06:12:00,
2013-06-01 20:21:00,79.0,68.0,-100.00,SW,235,2.0,5.0,68,0.00,,,0.00,17.000000,,2013-06-02 06:21:00,
2013-06-01 20:42:00,78.0,72.0,-100.00,ENE,73,2.0,9.0,83,0.00,,,0.00,0.000000,,2013-06-02 06:42:00,
2013-06-01 20:52:00,78.0,72.0,-100.00,ENE,73,2.0,9.0,83,0.00,,,0.00,0.000000,,2013-06-02 06:52:00,
2013-06-01 21:01:00,78.0,72.0,-100.00,ENE,73,2.0,9.0,83,0.00,,,0.00,0.000000,,2013-06-02 07:01:00,
2013-06-01 21:11:00,78.0,72.0,-100.00,ENE,73,2.0,9.0,83,0.00,,,0.00,0.000000,,2013-06-02 07:11:00,
2013-06-01 21:21:00,78.0,72.0,-100.00,ENE,73,2.0,9.0,83,0.00,,,0.00,0.000000,,2013-06-02 07:21:00,
2013-06-01 21:42:00,75.0,71.0,-100.00,ENE,59,3.0,17.0,86,0.00,,,0.00,0.000000,,2013-06-02 07:42:00,
2013-06-01 21:52:00,75.0,71.0,-100.00,ENE,59,3.0,17.0,86,0.00,,,0.00,0.000000,,2013-06-02 07:52:00,
2013-06-01 22:01:00,75.0,71.0,-100.00,ENE,59,3.0,17.0,86,0.00,,,0.00,0.000000,,2013-06-02 08:01:00,
2013-06-01 22:11:00,75.0,71.0,-100.00,ENE,59,3.0,17.0,86,0.00,,,0.00,0.000000,,2013-06-02 08:11:00,
2013-06-01 22:21:00,75.0,71.0,-100.00,ENE,59,3.0,17.0,86,0.00,,,0.00,0.000000,,2013-06-02 08:21:00,
2013-06-01 22:42:00,74.0,70.0,-100.00,ENE,57,3.0,7.0,87,0.00,,,0.00,0.000000,,2013-06-02 08:42:00,
2013-06-01 22:52:00,74.0,70.0,-100.00,ENE,57,3.0,7.0,87,0.00,,,0.00,0.000000,,2013-06-02 08:52:00,
2013-06-01 23:01:00,74.0,70.0,-100.00,ENE,57,3.0,7.0,87,0.00,,,0.00,0.000000,,2013-06-02 09:01:00,
2013-06-01 23:11:00,74.0,70.0,-100.00,ENE,57,3.0,7.0,87,0.00,,,0.00,0.000000,,2013-06-02 09:11:00,
2013-06-01 23:21:00,74.0,70.0,-100.00,ENE,57,3.0,7.0,87,0.00,,,0.00,0.000000,,2013-06-02 09:21:00,
2013-06-01 23:22:00,74.0,70.0,-100.00,ENE,65,3.0,7.0,88,0.01,,,0.01,0.000000,,2013-06-02 09:22:00,
2013-06-01 23:43:00,74.0,70.0,-100.00,ENE,65,3.0,7.0,88,0.01,,,0.01,0.000000,,2013-06-02 09:43:00,
2013-06-01 23:53:00,74.0,70.0,-100.00,ENE,65,3.0,7.0,88,0.01,,,0.01,0.000000,,2013-06-02 09:53:00,